THORAD AGENA D DEB, 42502

Orbit data source: Space-Track

THORAD AGENA D DEB, 42502 is space debris in SSO originally from a launch on Wed, 08 Apr 1970 UTC launched from the Air Force Western Test Range (AFWTR). Debris objects in space refer to the collection of defunct objects orbiting the Earth. Examples of debris include non-operational satellites, rocket bodies, and fragments generated from explosions, collisions, or faulty payload assembly.

Loading next visibility...
Identifier
42502, 1970-025RG
Orbit
SSO
Country
Flag of USUS
Related business
Manufacturer
Unknown
Mission
Spacecraft
Bus & Motor
Unknown
Mass
Unknown
Launch date (UTC)
1970-04-08 (56 years ago)
Launch vehicle
Unknown
Launch site
Air Force Western Test Range (AFWTR)
Object type
Payload
Rocket body
Debris
Shape & HBR
Unknown shape, 0.1 m
Radar Cross Section
Small (<0.1 m²)

Expand to show TLE details & history
Last TLE update: 20 hours ago

TLE from 20 hours ago
0 THORAD AGENA D DEB
1 42502U 70025RG  25287.70215985  .00000028  00000-0  10529-3 0  9998
2 42502  99.7231 199.9743 0014602 102.7217 287.5889 13.54831711588159
Epoch: 2025-10-14T16:51Z
TLE epoch observation values (Epoch: 2025-10-14T16:51:06.611Z)
Latitude
29.72367°
Longitude
-81.87521°
Altitude
1,054.874 km
Speed
7.329 km/s
True Right ascension
12h 57m 33s
True Declination
29° 34' 54"
Sunlit
Object was in daylight at epoch
Visualization orbit readout
Latitude
Unknown
Longitude
Unknown
Altitude
Unknown
Speed
Unknown
Apparent Right ascension
Unknown
Apparent Declination
Unknown
Sunlit
N/A
Visualization observer readout
Local Sidereal Time
07:25:46
Azimuth
Unknown
Elevation
Unknown
Doppler factor
Unknown
Orbital elements
Apogee altitude
1,062.68 km
Perigee altitude
1,040.981 km
Semi-major axis
7,429.968 km
Eccentricity
0.00146
Inclination
99.7231°
RAAN
199.9743°
Arg. of periapsis
102.7217°
True anomaly
287.42931°
Mean anomaly
287.5889°
Eccentric anomaly
287.50911°
Mean motion
3.38893 °/min
Orbital period
106.23 mins
BSTAR
0.00010529

Documentation

Showing up to 5 results
|